Tracking 32954 objects as of 19-Jan-2026
HD Live streaming from Space Station
objects crossing your sky now

FREGAT R/B

Track FREGAT R/B now!


NORAD ID: 43688
Int'l Code: 2018-086B
Perigee: 19,323.2 km
Apogee: 19,665.2 km
Inclination: 64.2 °
Period: 690.0 minutes
Semi major axis: 25865 km
RCS: Unknown
Launch date: November 3, 2018
Source: Commonwealth of Independent States (former USSR) (CIS)
Launch site: PLESETSK MISSILE AND SPACE COMPLEX (PKMTR)

Note: This is a ROCKET BODY
Your satellite tracking list
Your tracking list is empty




NASA's NSSDC Master Catalog

Two Line Element Set (TLE):
1 43688U 18086B   26017.89248848  .00000097  00000-0  00000-0 0  9995
2 43688  64.2162 201.5098 0066117 130.5333 230.0665  2.08703250 54688
Source of the keplerian elements: AFSPC